This demonstration page uses our WeatherBlox Daily Observations layout. Learn more.

38.88101, -77.10428

Hourly Observations for August 24, 2017

Temp ( °F °C ) Dew Point ( °F °C ) Humidity (%) Winds ( mph kmh ) Pressure ( in mb ) Visibility ( mi km ) Precip ( " mm )
12:52 am 00:52 Partly Cloudy 73 22.8 61 16.1 66 66 N 7 11 29.91 1013 10 16.0934 0 0
1:52 am 01:52 Mostly Clear 72 22.2 61 16.1 68 68 NNW 7 11 29.91 1013 10 16.0934 0 0
2:52 am 02:52 Mostly Cloudy 73 22.8 61 16.1 66 66 NNW 7 11 29.91 1013 10 16.0934 0 0
3:52 am 03:52 Cloudy 72 22.2 61 16.1 68 68 NNW 6 9 29.91 1013 10 16.0934 0 0
4:52 am 04:52 Cloudy 73 22.8 59 15 62 62 NW 8 13 29.93 1013 10 16.0934 0 0
5:52 am 05:52 Cloudy 73 22.8 58 14.4 59 59 NW 8 13 29.94 1014 10 16.0934 0 0
6:52 am 06:52 Cloudy 71 21.7 59 15 66 66 NNW 8 13 29.96 1015 10 16.0934 0 0
7:52 am 07:52 Mostly Cloudy 73 22.8 57 13.9 57 57 NNE 12 19 29.97 1015 10 16.0934 0 0
8:52 am 08:52 Cloudy 73 22.8 56 13.3 55 55 NNE 12 19 29.98 1015 10 16.0934 0 0
9:52 am 09:52 Cloudy 74 23.3 57 13.9 56 56 NE 12 19 29.98 1015 10 16.0934 0 0
10:52 am 10:52 Cloudy 76 24.4 58 14.4 54 54 NE 10 17 29.98 1015 10 16.0934 0 0
11:52 am 11:52 Mostly Cloudy 78 25.6 57 13.9 48 48 NNE 5 7 29.99 1016 10 16.0934 0 0
12:52 pm 12:52 Partly Cloudy 80 26.7 56 13.3 44 44 N 6 9 29.98 1015 10 16.0934 0 0
1:52 pm 13:52 Mostly Cloudy 81 27.2 55 12.8 41 41 NE 5 7 29.98 1015 10 16.0934 0 0
2:52 pm 14:52 Mostly Cloudy 83 28.3 54 12.2 37 37 N 5 7 29.97 1015 10 16.0934 0 0
3:52 pm 15:52 Partly Cloudy 84 28.9 54 12.2 36 36 NE 3 6 29.96 1015 10 16.0934 0 0
4:52 pm 16:52 Partly Cloudy 82 27.8 52 11.1 35 35 Calm 29.96 1015 10 16.0934 0 0
5:52 pm 17:52 Mostly Sunny 81 27.2 55 12.8 41 41 SE 3 6 29.95 1014 10 16.0934 0 0
6:52 pm 18:52 Partly Cloudy 79 26.1 56 13.3 45 45 S 7 11 29.95 1014 10 16.0934 0 0
7:52 pm 19:52 Partly Cloudy 78 25.6 56 13.3 47 47 SW 7 11 29.96 1014 10 16.0934 0 0
8:52 pm 20:52 Partly Cloudy 77 25 56 13.3 48 48 WSW 7 11 29.96 1015 10 16.0934 0 0
9:52 pm 21:52 Partly Cloudy 75 23.9 61 16.1 62 62 ESE 7 11 29.98 1015 10 16.0934 0 0
10:52 pm 22:52 Mostly Cloudy 74 23.3 63 17.2 69 69 E 5 7 29.99 1016 10 16.0934 0 0
11:52 pm 23:52 Cloudy 74 23.3 63 17.2 69 69 ENE 6 9 30 1016 10 16.0934 0 0

Powered by AerisWeather